Regional Weather Roundup
Issued by NWS

Home | Current Version | Previous Version | Graphics & Text | Print | Product List | Glossary On
Versions: 1 2 3 4 5 6 7 8 9 10 11 12 13 14 15 16 17 18 19 20 21 22 23 24 25 26 27 28 29 30 31 32 33 34 35 36 37 38 39 40 41 42 43 44 45 46 47 48 49 50
000
ASUS45 KSLC 270310
RWRUT

UTAH REGIONAL WEATHER ROUNDUP
NATIONAL WEATHER SERVICE SALT LAKE CITY UT
900 PM MDT SUN APR 26 2015

UTZ001>011-023>025-270400-

NORTHERN UTAH

CITY           SKY/WX    TMP DP  RH WIND       PRES   REMARKS
BRIGHAM CITY   CLOUDY    51  37  59 SW3       30.10R
HILL AFB       CLOUDY    49  33  52 N2        30.10R
LOGAN          CLOUDY    48  37  65 S5        30.10R
OGDEN          CLOUDY    50  33  52 NE3       30.09R
PROVO AIRPORT  CLOUDY    48  34  57 NW20      30.07R
SALT LAKE CITY MOCLDY    49  37  63 E5        30.09R
VERNAL         CLOUDY    51  29  42 NE8       29.95R
WENDOVER       CLEAR     52  16  24 N13G18    30.13R
HEBER CITY     CLOUDY    43  32  65 NE12      30.09R
WEST JORDAN    CLOUDY    46  39  76 N6        30.10R

$$

UTZ012>022-026-027-270400-

SOUTHERN/CENTRAL UTAH

CITY           SKY/WX    TMP DP  RH WIND       PRES   REMARKS
BLANDING       PTCLDY    49  36  62 NW12G17   29.94R
BRYCE CANYON   CLOUDY    36  24  62 N17       30.05R WCI  26
CEDAR CITY     PTCLDY    43  25  49 N12G22    30.05R
DELTA          MOCLDY    46  32  58 N8        30.09R
HANKSVILLE     CLEAR     52  30  43 NW15G23   29.94R
MILFORD        PTCLDY    47  23  38 N16       30.06R
MOAB/CYNLANDS  CLOUDY    53  37  54 W17       29.86R
PRICE          NOT AVBL
ST GEORGE      MOCLDY    61  25  25 NE18G26   29.95R
KANAB          CLEAR     48  27  43 NW16G26   30.01R

$$

REGIONAL REPORTS     COLORADO/ARIZONA

CITY           SKY/WX    TMP DP  RH WIND       PRES   REMARKS
CRAIG, CO      RAIN      43  39  86 N15       29.96R FOG
GRAND JUNCTION CLOUDY    47  45  93 SW5       29.90R
RIFLE          CLOUDY    45  40  82 W5        29.92R
MONTROSE       LGT RAIN  45  42  89 CALM      29.92R
CORTEZ         CLOUDY    47  38  71 NE6       29.85R
PAGE, AZ       PTCLDY    57  26  30 W10G21    29.88R
GRAND CANYON   CLEAR     42  27  55 N3        29.97R
KINGMAN        CLEAR     56  25  30 N10       29.94R
FLAGSTAFF      PTCLDY    41  29  62 VRB5      29.95R

$$

REGIONAL REPORTS    NEVADA/IDAHO/WYOMING

CITY           SKY/WX    TMP DP  RH WIND       PRES   REMARKS
LAS VEGAS, NV  PTCLDY    68  17  14 N12       29.90R
ELY            CLEAR     40  16  37 NW10      30.14R WCI  33
ELKO           PTCLDY    45  21  38 NW6       30.19R
POCATELLO, ID  MOCLDY    50  31  48 N7        30.12R
BURLEY         CLEAR     46  22  38 SW13      30.12R
EVANSTON, WY   CLOUDY    36  30  79 N10       30.12R WCI  28
ROCK SPRINGS   CLOUDY    38  35  89 NE18      30.06R WCI  28
KEMMERER       CLOUDY    36  30  80 NW22      30.08R WCI  24

$$



USA.gov is the U.S. government's official web portal to all federal, state and local government web resources and services.